Location: Mizzole
(45.4833°N, 11.0500°E)
Time: 03:26:54
(UTC+00:00)

USA 116 - Pass Details

Date: 21 October 2019
Orbit: 405 x 834 km, 97.9° (Epoch: 18 November)

Event Time Altitude Azimuth Distance (km) Brightness Sun altitude
Rises 18:05:29 0° 7° (N) 2,371 6.9 -19.0°
Reaches altitude 10° 18:07:27 10° 2° (N) 1,528 6.0 -19.4°
Maximum altitude 18:10:35 48° 287° (WNW) 595 4.3 -19.9°
Drops below altitude 10° 18:13:57 10° 212° (SSW) 1,649 6.5 -20.5°
Sets 18:16:09 0° 206° (SSW) 2,586 7.4 -20.9°
